| time (UTC) | temp F | wind direction | speed MPH | gust MPH | rain 1hr in | rain 24hr in | rain mn in | humidity % | barometer mb |
| 20260503230116 | 62 | 272 | 1.0 | 2.0 | 0.00 | 0.00 | 0.00 | 32 | 1015.0 |
| 20260503225614 | 62 | 245 | 1.0 | 2.0 | 0.00 | 0.00 | 0.00 | 33 | 1015.0 |
| 20260503225113 | 62 | 271 | 1.0 | 2.0 | 0.00 | 0.00 | 0.00 | 32 | 1014.9 |
| 20260503224611 | 63 | 231 | 1.0 | 4.0 | 0.00 | 0.00 | 0.00 | 31 | 1014.8 |
| 20260503224109 | 63 | 280 | 1.0 | 2.0 | 0.00 | 0.00 | 0.00 | 31 | 1014.9 |
| 20260503223607 | 62 | 320 | 2.0 | 3.0 | 0.00 | 0.00 | 0.00 | 32 | 1014.7 |
| 20260503223102 | 62 | 304 | 3.0 | 6.0 | 0.00 | 0.00 | 0.00 | 32 | 1015.0 |
| 20260503222600 | 62 | 329 | 4.0 | 4.0 | 0.00 | 0.00 | 0.00 | 32 | 1015.0 |
| 20260503222058 | 63 | 275 | 4.0 | 6.0 | 0.00 | 0.00 | 0.00 | 29 | 1015.1 |
| 20260503221555 | 62 | 278 | 4.0 | 7.0 | 0.00 | 0.00 | 0.00 | 30 | 1015.0 |
| 20260503221053 | 62 | 282 | 8.0 | 10.0 | 0.00 | 0.00 | 0.00 | 30 | 1015.1 |
| 20260503220549 | 63 | 280 | 3.0 | 4.0 | 0.00 | 0.00 | 0.00 | 31 | 1015.3 |
| 20260503220046 | 63 | 288 | 5.0 | 7.0 | 0.00 | 0.00 | 0.00 | 31 | 1015.3 |
| 20260503215543 | 63 | 280 | 6.0 | 7.0 | 0.00 | 0.00 | 0.00 | 29 | 1015.1 |
| 20260503215040 | 63 | 290 | 5.0 | 6.0 | 0.00 | 0.00 | 0.00 | 33 | 1015.1 |
| 20260503214538 | 63 | 252 | 2.0 | 7.0 | 0.00 | 0.00 | 0.00 | 31 | 1015.1 |
| 20260503214034 | 63 | 276 | 7.0 | 8.0 | 0.00 | 0.00 | 0.00 | 29 | 1015.1 |
| 20260503213533 | 62 | 296 | 4.0 | 7.0 | 0.00 | 0.00 | 0.00 | 32 | 1015.2 |
| 20260503213029 | 63 | 295 | 6.0 | 9.0 | 0.00 | 0.00 | 0.00 | 30 | 1015.2 |
| 20260503212527 | 63 | 281 | 7.0 | 9.0 | 0.00 | 0.00 | 0.00 | 28 | 1015.2 |
| 20260503212024 | 64 | 131 | 4.0 | 7.0 | 0.00 | 0.00 | 0.00 | 29 | 1015.0 |
| 20260503211521 | 63 | 296 | 4.0 | 4.0 | 0.00 | 0.00 | 0.00 | 31 | 1015.1 |
| 20260503211016 | 63 | 293 | 9.0 | 13.0 | 0.00 | 0.00 | 0.00 | 29 | 1015.3 |
| 20260503210514 | 63 | 234 | 2.0 | 9.0 | 0.00 | 0.00 | 0.00 | 30 | 1015.3 |
| 20260503210009 | 63 | 246 | 2.0 | 9.0 | 0.00 | 0.00 | 0.00 | 30 | 1015.1 |
| 20260503205506 | 63 | 224 | 5.0 | 8.0 | 0.00 | 0.00 | 0.00 | 30 | 1015.1 |
| 20260503205002 | 63 | 292 | 4.0 | 7.0 | 0.00 | 0.00 | 0.00 | 32 | 1015.3 |
| 20260503204459 | 62 | 333 | 0.0 | 4.0 | 0.00 | 0.00 | 0.00 | 31 | 1015.2 |
| 20260503203956 | 63 | 284 | 5.0 | 10.0 | 0.00 | 0.00 | 0.00 | 31 | 1015.3 |
| 20260503203454 | 63 | 269 | 1.0 | 3.0 | 0.00 | 0.00 | 0.00 | 30 | 1015.2 |
| 20260503202950 | 64 | 296 | 3.0 | 6.0 | 0.00 | 0.00 | 0.00 | 32 | 1015.2 |
| 20260503202448 | 63 | 304 | 5.0 | 9.0 | 0.00 | 0.00 | 0.00 | 34 | 1015.4 |
| 20260503201947 | 64 | 275 | 4.0 | 6.0 | 0.00 | 0.00 | 0.00 | 32 | 1015.4 |
| 20260503201444 | 64 | 270 | 0.0 | 6.0 | 0.00 | 0.00 | 0.00 | 32 | 1015.4 |
| 20260503200941 | 64 | 295 | 2.0 | 4.0 | 0.00 | 0.00 | 0.00 | 30 | 1015.6 |
| 20260503200437 | 62 | 286 | 1.0 | 6.0 | 0.00 | 0.00 | 0.00 | 32 | 1015.3 |
| 20260503195934 | 63 | 282 | 5.0 | 15.0 | 0.00 | 0.00 | 0.00 | 31 | 1015.3 |
| 20260503195432 | 63 | 239 | 1.0 | 6.0 | 0.00 | 0.00 | 0.00 | 30 | 1015.5 |
| 20260503194928 | 63 | 265 | 3.0 | 14.0 | 0.00 | 0.00 | 0.00 | 32 | 1015.9 |
| 20260503194425 | 63 | 245 | 3.0 | 7.0 | 0.00 | 0.00 | 0.00 | 30 | 1015.7 |
| 20260503193920 | 62 | 285 | 10.0 | 13.0 | 0.00 | 0.00 | 0.00 | 30 | 1015.9 |
| 20260503193416 | 62 | 291 | 3.0 | 6.0 | 0.00 | 0.00 | 0.00 | 33 | 1016.0 |
| 20260503192911 | 62 | 303 | 4.0 | 8.0 | 0.00 | 0.00 | 0.00 | 31 | 1016.1 |
| 20260503192408 | 61 | 323 | 6.0 | 9.0 | 0.00 | 0.00 | 0.00 | 33 | 1016.1 |
| 20260503191904 | 62 | 290 | 4.0 | 10.0 | 0.00 | 0.00 | 0.00 | 30 | 1016.1 |
| 20260503191401 | 61 | 301 | 6.0 | 11.0 | 0.00 | 0.00 | 0.00 | 31 | 1016.1 |
| 20260503190857 | 62 | 295 | 4.0 | 10.0 | 0.00 | 0.00 | 0.00 | 32 | 1016.3 |
| 20260503190355 | 62 | 274 | 1.0 | 4.0 | 0.00 | 0.00 | 0.00 | 31 | 1016.2 |
| 20260503185851 | 62 | 15 | 4.0 | 11.0 | 0.00 | 0.00 | 0.00 | 30 | 1016.3 |
| 20260503185348 | 63 | 46 | 2.0 | 3.0 | 0.00 | 0.00 | 0.00 | 30 | 1016.2 |
| 20260503184847 | 61 | 323 | 2.0 | 4.0 | 0.00 | 0.00 | 0.00 | 33 | 1016.3 |
| 20260503184344 | 61 | 300 | 2.0 | 9.0 | 0.00 | 0.00 | 0.00 | 31 | 1016.5 |
| 20260503183840 | 62 | 316 | 9.0 | 14.0 | 0.00 | 0.00 | 0.00 | 30 | 1016.7 |
| 20260503183337 | 61 | 288 | 4.0 | 7.0 | 0.00 | 0.00 | 0.00 | 34 | 1016.8 |
| 20260503182835 | 61 | 315 | 5.0 | 11.0 | 0.00 | 0.00 | 0.00 | 34 | 1016.8 |
| 20260503182334 | 62 | 312 | 1.0 | 3.0 | 0.00 | 0.00 | 0.00 | 36 | 1016.5 |
| 20260503181830 | 60 | 317 | 4.0 | 6.0 | 0.00 | 0.00 | 0.00 | 31 | 1016.5 |
| 20260503181327 | 59 | 229 | 1.0 | 6.0 | 0.00 | 0.00 | 0.00 | 33 | 1016.8 |
| 20260503180824 | 61 | 242 | 3.0 | 6.0 | 0.00 | 0.00 | 0.00 | 32 | 1016.6 |
| 20260503180322 | 59 | 327 | 2.0 | 6.0 | 0.00 | 0.00 | 0.00 | 32 | 1016.8 |
| 20260503175818 | 58 | 296 | 1.0 | 3.0 | 0.00 | 0.00 | 0.00 | 34 | 1016.9 |
| 20260503175316 | 59 | 333 | 3.0 | 9.0 | 0.00 | 0.00 | 0.00 | 30 | 1016.9 |
| 20260503174811 | 58 | 302 | 4.0 | 8.0 | 0.00 | 0.00 | 0.00 | 33 | 1017.1 |
| 20260503174310 | 58 | 291 | 2.0 | 7.0 | 0.00 | 0.00 | 0.00 | 32 | 1017.1 |
| 20260503173805 | 57 | 278 | 12.0 | 14.0 | 0.00 | 0.00 | 0.00 | 33 | 1017.4 |
| 20260503173301 | 57 | 279 | 6.0 | 7.0 | 0.00 | 0.00 | 0.00 | 34 | 1017.1 |
| 20260503172758 | 59 | 338 | 5.0 | 8.0 | 0.00 | 0.00 | 0.00 | 35 | 1017.3 |
| 20260503172256 | 57 | 269 | 2.0 | 4.0 | 0.00 | 0.00 | 0.00 | 41 | 1017.2 |
| 20260503171752 | 56 | 212 | 4.0 | 7.0 | 0.00 | 0.00 | 0.00 | 38 | 1017.4 |
| 20260503171249 | 57 | 204 | 1.0 | 6.0 | 0.00 | 0.00 | 0.00 | 36 | 1017.3 |
| 20260503170746 | 57 | 292 | 4.0 | 9.0 | 0.00 | 0.00 | 0.00 | 36 | 1017.6 |
| 20260503170243 | 58 | 282 | 7.0 | 13.0 | 0.00 | 0.00 | 0.00 | 33 | 1017.6 |
| 20260503160205 | 55 | 237 | 2.0 | 4.0 | 0.00 | 0.00 | 0.00 | 41 | 1018.1 |
| 20260503150635 | 52 | 304 | 8.0 | 10.0 | 0.00 | 0.00 | 0.00 | 42 | 1018.7 |
| 20260503150131 | 52 | 299 | 4.0 | 9.0 | 0.00 | 0.00 | 0.00 | 45 | 1018.8 |
| 20260503131025 | 47 | 351 | 2.0 | 8.0 | 0.00 | 0.00 | 0.00 | 58 | 1018.9 |
| 20260503130522 | 47 | 255 | 2.0 | 6.0 | 0.00 | 0.00 | 0.00 | 57 | 1019.0 |
| 20260503110401 | 33 | 147 | 0.0 | 0.0 | 0.00 | 0.00 | 0.00 | 94 | 1018.1 |
| 20260503090252 | 35 | 321 | 1.0 | 2.0 | 0.00 | 0.00 | 0.00 | 86 | 1017.2 |
| 20260503081219 | 40 | 315 | 0.0 | 1.0 | 0.00 | 0.00 | 0.00 | 76 | 1017.0 |
| 20260503080715 | 40 | 320 | 1.0 | 2.0 | 0.00 | 0.00 | 0.00 | 76 | 1017.1 |
| 20260503080212 | 40 | 310 | 1.0 | 1.0 | 0.00 | 0.00 | 0.00 | 80 | 1016.9 |
| 20260503072648 | 38 | 259 | 0.0 | 0.0 | 0.00 | 0.00 | 0.00 | 92 | 1016.5 |
| 20260503072145 | 38 | 265 | 0.0 | 0.0 | 0.00 | 0.00 | 0.00 | 91 | 1016.7 |
| 20260503071642 | 38 | 272 | 0.0 | 0.0 | 0.00 | 0.00 | 0.00 | 91 | 1016.6 |
| 20260503071139 | 38 | 292 | 0.0 | 0.0 | 0.00 | 0.00 | 0.00 | 91 | 1016.4 |
| 20260503070636 | 38 | 292 | 0.0 | 0.0 | 0.00 | 0.00 | 0.00 | 91 | 1016.5 |
| 20260503070134 | 38 | 292 | 0.0 | 0.0 | 0.00 | 0.00 | 0.00 | 91 | 1016.4 |
| 20260503055050 | 37 | 23 | 0.0 | 0.0 | 0.00 | 0.00 | 0.00 | 90 | 1016.2 |
| 20260503054545 | 37 | 344 | 0.0 | 0.0 | 0.00 | 0.00 | 0.00 | 89 | 1016.3 |
| 20260503054042 | 37 | 344 | 0.0 | 0.0 | 0.00 | 0.00 | 0.00 | 90 | 1016.4 |
| 20260503053541 | 37 | 344 | 0.0 | 0.0 | 0.00 | 0.00 | 0.00 | 90 | 1016.6 |
| 20260503053038 | 37 | 340 | 0.0 | 0.0 | 0.00 | 0.00 | 0.00 | 91 | 1016.4 |
| 20260503052535 | 36 | 340 | 0.0 | 0.0 | 0.00 | 0.00 | 0.00 | 91 | 1016.3 |
| 20260503052031 | 36 | 341 | 0.0 | 0.0 | 0.00 | 0.00 | 0.00 | 89 | 1016.4 |
| 20260503051527 | 37 | 341 | 0.0 | 0.0 | 0.00 | 0.00 | 0.00 | 88 | 1016.3 |
| 20260503051025 | 37 | 329 | 0.0 | 0.0 | 0.00 | 0.00 | 0.00 | 87 | 1016.3 |
| 20260503050520 | 37 | 327 | 0.0 | 1.0 | 0.00 | 0.00 | 0.00 | 86 | 1016.5 |
| 20260503050018 | 38 | 310 | 1.0 | 1.0 | 0.00 | 0.00 | 0.00 | 85 | 1016.6 |
| 20260503045515 | 38 | 315 | 1.0 | 1.0 | 0.00 | 0.00 | 0.00 | 86 | 1016.4 |
| 20260503045012 | 38 | 311 | 1.0 | 1.0 | 0.00 | 0.00 | 0.00 | 84 | 1016.6 |
| 20260503044508 | 39 | 312 | 1.0 | 1.0 | 0.00 | 0.00 | 0.00 | 83 | 1016.5 |
| 20260503044006 | 38 | 319 | 1.0 | 2.0 | 0.00 | 0.00 | 0.00 | 84 | 1016.5 |
| 20260503043502 | 38 | 304 | 1.0 | 2.0 | 0.00 | 0.00 | 0.00 | 85 | 1016.6 |
| 20260503042959 | 39 | 311 | 1.0 | 2.0 | 0.00 | 0.00 | 0.00 | 84 | 1016.5 |
| 20260503042455 | 39 | 331 | 1.0 | 2.0 | 0.00 | 0.00 | 0.00 | 83 | 1016.5 |
| 20260503041952 | 39 | 311 | 1.0 | 2.0 | 0.00 | 0.00 | 0.00 | 82 | 1016.5 |
| 20260503041448 | 39 | 316 | 0.0 | 0.0 | 0.00 | 0.00 | 0.00 | 81 | 1016.5 |
| 20260503040946 | 40 | 319 | 1.0 | 1.0 | 0.00 | 0.00 | 0.00 | 80 | 1016.5 |
| 20260503040443 | 41 | 328 | 0.0 | 1.0 | 0.00 | 0.00 | 0.00 | 77 | 1016.4 |
| 20260503035941 | 41 | 326 | 1.0 | 1.0 | 0.00 | 0.00 | 0.00 | 75 | 1016.5 |
| 20260503035437 | 42 | 317 | 1.0 | 1.0 | 0.00 | 0.00 | 0.00 | 73 | 1016.5 |
| 20260503034935 | 42 | 310 | 0.0 | 1.0 | 0.00 | 0.00 | 0.00 | 75 | 1016.5 |
| 20260503034432 | 42 | 326 | 1.0 | 1.0 | 0.00 | 0.00 | 0.00 | 73 | 1016.4 |
| 20260503033929 | 44 | 322 | 0.0 | 1.0 | 0.00 | 0.00 | 0.00 | 69 | 1016.3 |
| 20260503033426 | 43 | 300 | 3.0 | 4.0 | 0.00 | 0.00 | 0.00 | 66 | 1016.3 |
| 20260503032924 | 44 | 315 | 2.0 | 4.0 | 0.00 | 0.00 | 0.00 | 66 | 1016.4 |
| 20260503032423 | 43 | 316 | 1.0 | 3.0 | 0.00 | 0.00 | 0.00 | 70 | 1016.2 |
| 20260503031920 | 42 | 299 | 2.0 | 3.0 | 0.00 | 0.00 | 0.00 | 71 | 1016.2 |
| 20260503031418 | 42 | 307 | 1.0 | 2.0 | 0.00 | 0.00 | 0.00 | 71 | 1016.3 |
| 20260503030914 | 44 | 323 | 1.0 | 2.0 | 0.00 | 0.00 | 0.00 | 69 | 1016.6 |
| 20260503030411 | 45 | 304 | 1.0 | 2.0 | 0.00 | 0.00 | 0.00 | 65 | 1016.6 |
| 20260503025907 | 45 | 328 | 1.0 | 2.0 | 0.00 | 0.00 | 0.00 | 61 | 1016.7 |
| 20260503025405 | 46 | 7 | 1.0 | 1.0 | 0.00 | 0.00 | 0.00 | 63 | 1016.5 |
| 20260503024902 | 46 | 306 | 2.0 | 3.0 | 0.00 | 0.00 | 0.00 | 60 | 1016.5 |
| 20260503024359 | 46 | 324 | 0.0 | 2.0 | 0.00 | 0.00 | 0.00 | 59 | 1016.6 |
| 20260503023855 | 47 | 315 | 3.0 | 6.0 | 0.00 | 0.00 | 0.00 | 58 | 1016.5 |
| 20260503023352 | 46 | 335 | 2.0 | 3.0 | 0.00 | 0.00 | 0.00 | 60 | 1016.6 |
| 20260503022849 | 47 | 26 | 1.0 | 2.0 | 0.00 | 0.00 | 0.00 | 60 | 1016.6 |
| 20260503022343 | 47 | 11 | 1.0 | 3.0 | 0.00 | 0.00 | 0.00 | 59 | 1016.8 |
| 20260503021840 | 48 | 325 | 2.0 | 3.0 | 0.00 | 0.00 | 0.00 | 58 | 1016.8 |
| 20260503021337 | 48 | 336 | 3.0 | 7.0 | 0.00 | 0.00 | 0.00 | 56 | 1016.6 |
| 20260503020834 | 47 | 300 | 2.0 | 3.0 | 0.00 | 0.00 | 0.00 | 58 | 1016.7 |
| 20260503020332 | 47 | 309 | 2.0 | 2.0 | 0.00 | 0.00 | 0.00 | 59 | 1016.5 |
| 20260503015828 | 47 | 317 | 2.0 | 3.0 | 0.00 | 0.00 | 0.00 | 58 | 1016.5 |
| 20260503015325 | 47 | 318 | 2.0 | 2.0 | 0.00 | 0.00 | 0.00 | 59 | 1016.6 |
| 20260503014820 | 48 | 70 | 0.0 | 1.0 | 0.00 | 0.00 | 0.00 | 58 | 1016.4 |
| 20260503014318 | 48 | 321 | 1.0 | 2.0 | 0.00 | 0.00 | 0.00 | 58 | 1016.4 |
| 20260503013816 | 48 | 338 | 3.0 | 7.0 | 0.00 | 0.00 | 0.00 | 57 | 1016.2 |
| 20260503013313 | 48 | 23 | 2.0 | 3.0 | 0.00 | 0.00 | 0.00 | 57 | 1016.2 |
| 20260503012810 | 48 | 26 | 1.0 | 2.0 | 0.00 | 0.00 | 0.00 | 57 | 1016.1 |
| 20260503012307 | 48 | 326 | 2.0 | 4.0 | 0.00 | 0.00 | 0.00 | 57 | 1016.1 |
| 20260503011804 | 49 | 318 | 1.0 | 3.0 | 0.00 | 0.00 | 0.00 | 56 | 1016.0 |
| 20260503011301 | 49 | 346 | 3.0 | 4.0 | 0.00 | 0.00 | 0.00 | 56 | 1015.8 |
| 20260503010757 | 49 | 313 | 4.0 | 4.0 | 0.00 | 0.00 | 0.00 | 55 | 1015.8 |
| 20260503010254 | 49 | 37 | 2.0 | 2.0 | 0.00 | 0.00 | 0.00 | 55 | 1015.6 |
| 20260503005751 | 49 | 349 | 1.0 | 6.0 | 0.00 | 0.00 | 0.00 | 54 | 1015.8 |
| 20260503005249 | 50 | 33 | 2.0 | 4.0 | 0.00 | 0.00 | 0.00 | 55 | 1015.6 |
| 20260503004745 | 50 | 1 | 2.0 | 3.0 | 0.00 | 0.00 | 0.00 | 54 | 1015.4 |
| 20260503004243 | 50 | 31 | 2.0 | 3.0 | 0.00 | 0.00 | 0.00 | 54 | 1015.3 |
| 20260503003740 | 50 | 350 | 1.0 | 3.0 | 0.00 | 0.00 | 0.00 | 53 | 1015.3 |
| 20260503003237 | 51 | 17 | 2.0 | 3.0 | 0.00 | 0.00 | 0.00 | 52 | 1015.1 |
| 20260503002733 | 51 | 327 | 5.0 | 6.0 | 0.00 | 0.00 | 0.00 | 52 | 1015.2 |
| 20260503002231 | 51 | 311 | 3.0 | 3.0 | 0.00 | 0.00 | 0.00 | 51 | 1015.0 |
| 20260503001726 | 51 | 27 | 2.0 | 7.0 | 0.00 | 0.00 | 0.00 | 50 | 1014.9 |
| 20260503001223 | 51 | 339 | 4.0 | 6.0 | 0.00 | 0.00 | 0.00 | 51 | 1014.9 |
| 20260503000721 | 51 | 322 | 2.0 | 4.0 | 0.00 | 0.00 | 0.00 | 50 | 1014.8 |
| 20260503000218 | 52 | 3 | 2.0 | 4.0 | 0.00 | 0.00 | 0.00 | 51 | 1014.9 |
| 20260502235715 | 52 | 311 | 3.0 | 4.0 | 0.00 | 0.00 | 0.00 | 50 | 1014.7 |
| 20260502235213 | 52 | 331 | 3.0 | 3.0 | 0.00 | 0.00 | 0.00 | 48 | 1014.6 |
| 20260502234709 | 52 | 314 | 4.0 | 4.0 | 0.00 | 0.00 | 0.00 | 49 | 1014.4 |
| 20260502234206 | 52 | 339 | 2.0 | 4.0 | 0.00 | 0.00 | 0.00 | 47 | 1014.4 |
| 20260502233702 | 52 | 11 | 2.0 | 3.0 | 0.00 | 0.00 | 0.00 | 48 | 1014.4 |
| 20260502233159 | 52 | 4 | 1.0 | 3.0 | 0.00 | 0.00 | 0.00 | 50 | 1014.4 |
| 20260502232655 | 53 | 334 | 1.0 | 3.0 | 0.00 | 0.00 | 0.00 | 48 | 1014.4 |
| 20260502232152 | 53 | 344 | 4.0 | 4.0 | 0.00 | 0.00 | 0.00 | 47 | 1014.4 |
| 20260502231649 | 53 | 293 | 2.0 | 2.0 | 0.00 | 0.00 | 0.00 | 49 | 1014.3 |
| 20260502231147 | 53 | 4 | 3.0 | 6.0 | 0.00 | 0.00 | 0.00 | 47 | 1014.2 |
| 20260502230645 | 53 | 319 | 2.0 | 6.0 | 0.00 | 0.00 | 0.00 | 48 | 1014.2 |